Weather History for Storm Lake, IA

Change the Weather History Date:

Sunday, September 9, 2012

  Actual Average Record
Temperature  
Mean Temperature 60 °F -  
Max Temperature 73 °F 76 °F 95 °F (2005)
Min Temperature 46 °F 54 °F 44 °F (2008)
Degree Days  
Heating Degree Days 6    
Growing Degree Days 10 (Base 50)    
Moisture  
Dew Point 46 °F    
Average Humidity 62    
Maximum Humidity 93    
Minimum Humidity 33    
Precipitation  
Precipitation 0.00 in - - ()
Sea Level Pressure  
Sea Level Pressure 30.16 in    
Wind  
Wind Speed 6 mph (North)    
Max Wind Speed 9 mph    
Max Gust Speed 12 mph    
Visibility 10 miles    
Events      
Averages and records for this station are not official NWS values.
T = Trace of Precipitation, MM = Missing Value Source: NWS Daily Summary

Daily Weather History Graph

Daily Weather History Graph

Search for Another Location

Airport:

Trip Planner

Search our weather history database for the weather conditions in past years. The results will help you decide how hot, cold, wet, or windy it might be!

Date:

Astronomy

Sep. 09, 2012 Rise Set
Actual Time 6:54 AM CDT 7:40 PM CDT
Civil Twilight 6:26 AM CDT 8:08 PM CDT
Nautical Twilight 5:52 AM CDT 8:42 PM CDT
Astronomical Twilight 5:17 AM CDT 9:17 PM CDT
Moon 12:19 AM CDT (9/9) 3:32 PM CDT (9/9)
Length of Visible Light 13h 42m
Length of Day
12h 45m
Last Quarter, 39% of the Moon is Illuminated
Sep 9
Last Quarter
Sep 15
New
Sep 22
First Quarter
Sep 29
Full
Oct 8
Last Quarter

Hourly Weather History & Observations

Time (CDT) Temp. Windchill Dew Point Humidity Pressure Visibility Wind Dir Wind Speed Gust Speed Precip Events Conditions
12:15 AM 53.6 °F - 44.6 °F 72% 30.09 in 10.0 mi North 8.1 mph - N/A   Clear
12:35 AM 53.6 °F - 44.6 °F 72% 30.10 in 10.0 mi NNW 6.9 mph - N/A   Clear
12:55 AM 53.6 °F - 44.6 °F 72% 30.10 in 10.0 mi North 8.1 mph - N/A   Clear
1:15 AM 53.6 °F - 44.6 °F 72% 30.10 in 10.0 mi North 8.1 mph - N/A   Clear
1:35 AM 51.8 °F - 44.6 °F 76% 30.09 in 10.0 mi North 8.1 mph - N/A   Clear
1:55 AM 51.8 °F - 44.6 °F 76% 30.10 in 10.0 mi NNW 8.1 mph - N/A   Clear
2:15 AM 51.8 °F - 44.6 °F 76% 30.11 in 10.0 mi NNW 8.1 mph - N/A   Clear
2:35 AM 51.8 °F - 44.6 °F 76% 30.11 in 10.0 mi NNW 8.1 mph - N/A   Clear
2:55 AM 51.8 °F - 44.6 °F 76% 30.11 in 10.0 mi NNW 6.9 mph - N/A   Clear
3:15 AM 50.0 °F - 44.6 °F 82% 30.12 in 10.0 mi NNW 6.9 mph - N/A   Clear
3:35 AM 48.2 °F - 44.6 °F 87% 30.12 in 10.0 mi NNW 5.8 mph - N/A   Clear
3:55 AM 48.2 °F - 44.6 °F 87% 30.13 in 10.0 mi NNW 6.9 mph - N/A   Clear
4:15 AM 48.2 °F - 44.6 °F 87% 30.14 in 10.0 mi NW 8.1 mph - N/A   Clear
4:35 AM 48.2 °F - 44.6 °F 87% 30.15 in 10.0 mi NNW 8.1 mph - N/A   Clear
4:55 AM 48.2 °F - 44.6 °F 87% 30.16 in 10.0 mi NNW 8.1 mph - N/A   Clear
5:15 AM 48.2 °F - 44.6 °F 87% 30.16 in 10.0 mi North 8.1 mph - N/A   Clear
5:35 AM 48.2 °F - 44.6 °F 87% 30.16 in 10.0 mi North 8.1 mph - N/A   Clear
5:55 AM 48.2 °F - 44.6 °F 87% 30.17 in 10.0 mi North 8.1 mph - N/A   Clear
6:15 AM 48.2 °F - 44.6 °F 87% 30.18 in 10.0 mi North 9.2 mph - N/A   Clear
6:55 AM 46.4 °F 43.5 °F 44.6 °F 93% 30.19 in 10.0 mi North 5.8 mph - N/A   Clear
7:15 AM 46.4 °F 43.5 °F 44.6 °F 93% 30.20 in 10.0 mi NNW 5.8 mph - N/A   Clear
7:35 AM 48.2 °F - 44.6 °F 87% 30.20 in 10.0 mi NNW 5.8 mph - N/A   Clear
7:55 AM 50.0 °F - 46.4 °F 87% 30.21 in 10.0 mi North 6.9 mph - N/A   Clear
8:35 AM 53.6 °F - 48.2 °F 82% 30.22 in 10.0 mi Variable 5.8 mph - N/A   Clear
8:55 AM 55.4 °F - 48.2 °F 77% 30.22 in 10.0 mi North 9.2 mph - N/A   Clear
9:15 AM 57.2 °F - 50.0 °F 77% 30.22 in 10.0 mi NNE 8.1 mph - N/A   Clear
9:35 AM 57.2 °F - 50.0 °F 77% 30.23 in 10.0 mi NE 8.1 mph - N/A   Clear
9:55 AM 59.0 °F - 50.0 °F 72% 30.23 in 10.0 mi Variable 5.8 mph - N/A   Clear
10:15 AM 60.8 °F - 50.0 °F 68% 30.24 in 10.0 mi NE 5.8 mph - N/A   Clear
10:35 AM 60.8 °F - 48.2 °F 63% 30.24 in 10.0 mi Calm Calm - N/A   Clear
10:55 AM 62.6 °F - 48.2 °F 59% 30.24 in 10.0 mi NE 5.8 mph - N/A   Clear
11:15 AM 62.6 °F - 48.2 °F 59% 30.24 in 10.0 mi North 9.2 mph - N/A   Clear
11:35 AM 64.4 °F - 48.2 °F 56% 30.24 in 10.0 mi ENE 6.9 mph - N/A   Clear
11:55 AM 66.2 °F - 48.2 °F 52% 30.23 in 10.0 mi NE 6.9 mph - N/A   Clear
12:15 PM 66.2 °F - 46.4 °F 49% 30.23 in 10.0 mi Calm Calm - N/A   Clear
12:35 PM 68.0 °F - 46.4 °F 46% 30.23 in 10.0 mi Variable 5.8 mph - N/A   Clear
12:55 PM 68.0 °F - 46.4 °F 46% 30.22 in 10.0 mi Calm Calm - N/A   Clear
1:15 PM 68.0 °F - 46.4 °F 46% 30.22 in 10.0 mi Variable 4.6 mph 11.5 mph N/A   Clear
1:35 PM 69.8 °F - 46.4 °F 43% 30.21 in 10.0 mi ENE 6.9 mph - N/A   Clear
1:55 PM 69.8 °F - 44.6 °F 40% 30.20 in 10.0 mi East 6.9 mph - N/A   Clear
2:15 PM 69.8 °F - 44.6 °F 40% 30.19 in 10.0 mi Variable 5.8 mph - N/A   Clear
2:35 PM 71.6 °F - 44.6 °F 38% 30.19 in 10.0 mi Variable 4.6 mph 11.5 mph N/A   Clear
2:55 PM 71.6 °F - 44.6 °F 38% 30.18 in 10.0 mi Variable 4.6 mph - N/A   Clear
3:15 PM 71.6 °F - 44.6 °F 38% 30.17 in 10.0 mi Variable 4.6 mph - N/A   Clear
3:35 PM 73.4 °F - 46.4 °F 38% 30.16 in 10.0 mi Variable 5.8 mph - N/A   Clear
3:55 PM 73.4 °F - 44.6 °F 36% 30.16 in 10.0 mi Variable 6.9 mph - N/A   Clear
4:15 PM 73.4 °F - 44.6 °F 36% 30.16 in 10.0 mi Calm Calm - N/A   Clear
4:35 PM 73.4 °F - 44.6 °F 36% 30.15 in 10.0 mi Calm Calm - N/A   Clear
4:55 PM 73.4 °F - 42.8 °F 33% 30.15 in 10.0 mi Variable 4.6 mph - N/A   Clear
5:15 PM 73.4 °F - 42.8 °F 33% 30.14 in 10.0 mi Calm Calm - N/A   Clear
5:35 PM 73.4 °F - 42.8 °F 33% 30.14 in 10.0 mi Calm Calm - N/A   Clear
5:55 PM 73.4 °F - 42.8 °F 33% 30.14 in 10.0 mi Variable 4.6 mph - N/A   Clear
6:15 PM 73.4 °F - 42.8 °F 33% 30.13 in 10.0 mi Calm Calm - N/A   Clear
6:35 PM 73.4 °F - 44.6 °F 36% 30.13 in 10.0 mi Calm Calm - N/A   Clear
6:55 PM 71.6 °F - 44.6 °F 38% 30.12 in 10.0 mi Calm Calm - N/A   Clear
7:15 PM 69.8 °F - 48.2 °F 46% 30.12 in 10.0 mi Calm Calm - N/A   Clear
7:35 PM 64.4 °F - 50.0 °F 59% 30.11 in 9.0 mi Calm Calm - N/A   Clear
7:55 PM 66.2 °F - 46.4 °F 49% 30.11 in 10.0 mi Calm Calm - N/A   Clear
8:15 PM 64.4 °F - 46.4 °F 52% 30.11 in 10.0 mi Calm Calm - N/A   Clear
8:35 PM 62.6 °F - 46.4 °F 55% 30.12 in 10.0 mi Calm Calm - N/A   Clear
8:55 PM 59.0 °F - 46.4 °F 63% 30.13 in 10.0 mi Calm Calm - N/A   Clear
9:15 PM 59.0 °F - 46.4 °F 63% 30.13 in 10.0 mi Calm Calm - N/A   Clear
9:35 PM 60.8 °F - 46.4 °F 59% 30.14 in 10.0 mi South 3.5 mph - N/A   Clear
9:55 PM 57.2 °F - 46.4 °F 67% 30.14 in 10.0 mi SSE 3.5 mph - N/A   Clear
10:15 PM 57.2 °F - 46.4 °F 67% 30.13 in 10.0 mi SSE 6.9 mph - N/A   Clear
10:35 PM 59.0 °F - 46.4 °F 63% 30.13 in 10.0 mi SSE 8.1 mph - N/A   Clear
10:55 PM 59.0 °F - 44.6 °F 59% 30.13 in 10.0 mi South 8.1 mph - N/A   Clear
11:15 PM 59.0 °F - 44.6 °F 59% 30.13 in 10.0 mi South 9.2 mph - N/A   Clear
11:35 PM 57.2 °F - 44.6 °F 63% 30.12 in 10.0 mi South 9.2 mph - N/A   Clear
11:55 PM 57.2 °F - 44.6 °F 63% 30.12 in 10.0 mi South 8.1 mph - N/A   Clear